[[{"header":{"parameterUnit":"m.s-1","parameterCategory":1,"la1":30.2991,"la2":30.254,"lo1":-89.0895,"lo2":-89.0444,"dy":0.0017,"dx":0.0017,"nx":28,"ny":28,"refTime":"2026-01-29T09:00:00:Z","depth":0,"parameterNumber":2,"parameterNumberName":"U-component_of_WINDS"},"data":[0,0,0,0,0,0,0,0,0,0,0,0,0,0,0,0,0,0,0,0,0,0,0,0,0,0,0,0,0,0,0,0,0,0,0,0,0,0,0,0,0,0,0,0,0,0,0,0,0,0,0,0,0,0,0,0,0,0,-0.7266,-0.7266,0,-0.7293,-0.7293,-0.7294,-0.729,-0.729,-0.7289,-0.7289,-0.7318,-0.7319,-0.732,0,0,0,0,0,0,0,0,0,0,0,0,0,-0.721,-0.7211,-0.7266,-0.7266,-0.7266,-0.7293,-0.7293,-0.7294,-0.729,-0.729,-0.7289,-0.7289,-0.7318,-0.7319,-0.7321,0,0,0,0,0,0,0,0,0,0,0,0,0,-0.7236,-0.7211,-0.7266,-0.7268,-0.7268,-0.7293,-0.7293,-0.7294,-0.729,-0.729,-0.7289,-0.7288,-0.7317,-0.7319,-0.7321,-0.7346,0,0,-0.7326,-0.7327,0,0,0,0,0,0,0,0,-0.7234,-0.7238,-0.7267,-0.7268,-0.7268,-0.7287,-0.7285,-0.7311,-0.7291,-0.7282,-0.7289,-0.7288,-0.7309,-0.7311,-0.7318,-0.7347,-0.7348,-0.7326,-0.7328,-0.7328,-0.7329,0,0,0,0,0,0,0,-0.7232,-0.7236,-0.7277,-0.7268,-0.7268,-0.7267,-0.727,-0.729,-0.7299,-0.7283,-0.7282,-0.7286,-0.7309,-0.7316,-0.7318,-0.7349,-0.7326,-0.7328,-0.7329,-0.733,-0.7398,-0.7398,0,0,0,0,0,0,-0.723,-0.7235,-0.7276,-0.7277,-0.7249,-0.7269,-0.7272,-0.7282,-0.7299,-0.73,-0.7286,-0.7285,-0.7313,-0.7316,-0.7319,-0.7349,-0.7328,-0.733,-0.7331,-0.7397,-0.7398,-0.7399,0,0,0,0,0,0,-0.7229,-0.7234,-0.7275,-0.7256,-0.7261,-0.727,-0.7282,-0.7283,-0.729,-0.7301,-0.7303,-0.7292,-0.7313,-0.7317,-0.7339,-0.735,-0.7331,-0.7332,-0.7396,-0.7397,-0.7398,-0.7408,0,0,0,0,0,0,-0.7227,-0.7233,-0.7243,-0.7256,-0.7262,-0.7294,-0.7282,-0.7284,-0.7293,-0.7292,-0.7307,-0.7309,-0.7313,-0.7336,-0.734,-0.7352,-0.7334,-0.7395,-0.7397,-0.7398,-0.7406,-0.7409,-0.7411,0,0,0,0,0,-0.7225,-0.7245,-0.7243,-0.7248,-0.7275,-0.7294,-0.7298,-0.7301,-0.7294,-0.7304,-0.731,-0.7308,-0.7347,-0.7338,-0.7343,-0.7355,-0.7395,-0.7396,-0.7398,-0.7405,-0.7408,-0.7411,0,0,0,0,0,0,-0.7234,-0.7247,-0.7245,-0.727,-0.7281,-0.7294,-0.7306,-0.7304,-0.7318,-0.7317,-0.7321,-0.7324,-0.7346,-0.7353,-0.7342,-0.7379,-0.737,-0.7373,-0.7374,-0.7377,-0.7379,-0.7377,-0.7335,0,0,0,0,0,-0.7238,-0.7253,-0.7264,-0.7285,-0.729,-0.7297,-0.7306,-0.7307,-0.7319,-0.7324,-0.7332,-0.7344,-0.7358,-0.7368,-0.7382,-0.7407,-0.741,-0.7418,-0.742,-0.7422,-0.7424,-0.7436,-0.744,-0.7404,-0.7404,-0.7404,0,0,-0.7249,-0.7258,-0.7267,-0.7287,-0.7295,-0.731,-0.7301,-0.7318,-0.7329,-0.7326,-0.7347,-0.7353,-0.7366,-0.7389,-0.74,-0.7396,-0.7434,-0.7424,-0.7425,-0.7427,-0.7438,-0.7442,-0.7445,-0.7405,-0.7405,-0.7405,0,0,-0.7275,-0.7283,-0.7301,-0.7309,-0.7321,-0.7325,-0.733,-0.7342,-0.7346,-0.7366,-0.7365,-0.7378,-0.7403,-0.7412,-0.742,-0.7447,-0.7445,-0.7451,-0.7463,-0.7475,-0.7478,-0.7481,-0.7489,-0.7493,-0.7453,-0.7453,-0.7453,0,-0.7286,-0.7308,-0.731,-0.7326,-0.7335,-0.7332,-0.7349,-0.7357,-0.7374,-0.738,-0.7375,-0.7405,-0.7414,-0.7439,-0.7445,-0.7452,-0.7456,-0.745,-0.7477,-0.748,-0.7482,-0.7491,-0.7494,-0.7454,-0.7454,-0.7454,-0.7454,0,-0.732,-0.7336,-0.7348,-0.7363,-0.7373,-0.739,-0.7394,-0.7404,-0.7404,-0.7408,-0.7429,-0.7439,-0.7454,-0.746,-0.7461,-0.7484,-0.7481,-0.7477,-0.7468,-0.7486,-0.7494,-0.7498,-0.7455,-0.7455,-0.7455,-0.7454,0,0,-0.7354,-0.7369,-0.7373,-0.7379,-0.7392,-0.7404,-0.742,-0.7434,-0.7442,-0.7453,-0.7466,-0.7487,-0.7482,-0.7491,-0.7493,-0.7503,-0.7522,-0.7497,-0.7498,-0.7501,-0.7548,-0.7551,-0.7554,-0.7521,-0.7522,-0.7522,-0.7546,0,-0.7381,-0.7409,-0.7411,-0.7436,-0.745,-0.7446,-0.746,-0.7469,-0.7473,-0.7485,-0.749,-0.7504,-0.7497,-0.7502,-0.7512,-0.7518,-0.7532,-0.7516,-0.7533,-0.7534,-0.753,-0.7559,-0.7562,-0.7585,-0.7549,-0.755,-0.755,0,-0.7417,-0.7427,-0.7454,-0.7463,-0.7469,-0.7481,-0.7493,-0.7505,-0.7515,-0.7517,-0.7525,-0.7525,-0.7541,-0.7531,-0.7552,-0.7542,-0.7548,-0.7552,-0.7553,-0.7555,-0.7543,-0.7561,-0.7592,-0.7595,-0.7555,-0.7555,-0.7555,0,-0.7438,-0.7459,-0.7477,-0.7483,-0.7494,-0.7502,-0.7507,-0.7516,-0.7524,-0.7535,-0.754,-0.7553,-0.756,-0.7569,-0.7572,-0.7564,-0.7593,-0.7583,-0.7595,-0.7595,-0.7602,-0.7601,-0.7634,-0.7606,-0.7606,-0.7606,-0.7606,0,-0.7468,-0.7484,-0.7487,-0.7498,-0.7516,-0.7517,-0.7534,-0.7538,-0.7546,-0.7558,-0.7556,-0.7567,-0.7569,-0.7581,-0.7583,-0.76,-0.7603,-0.7605,-0.7606,-0.7605,-0.7605,-0.761,-0.7609,-0.7607,-0.7607,-0.7606,-0.7606,0,-0.7495,-0.7497,-0.7517,-0.7525,-0.7527,-0.754,-0.7547,-0.7557,-0.756,-0.7575,-0.7579,-0.7583,-0.7597,-0.76,-0.7616,-0.7617,-0.7637,-0.7636,-0.7634,-0.7634,-0.7645,-0.7643,-0.7682,-0.7687,-0.7656,-0.7656,-0.7656,0,-0.7514,-0.7526,-0.7535,-0.7542,-0.7547,-0.7559,-0.7567,-0.7567,-0.7575,-0.7586,-0.7595,-0.7608,-0.7618,-0.7639,-0.7644,-0.7656,-0.7655,-0.7667,-0.7657,-0.7656,-0.7654,-0.7654,-0.7654,-0.767,-0.767,-0.767,-0.767,0,-0.7547,-0.7547,-0.7558,-0.7568,-0.7577,-0.7586,-0.7594,-0.76,-0.7602,-0.7611,-0.7624,-0.7631,-0.7647,-0.7659,-0.767,-0.7676,-0.7673,-0.7673,-0.7677,-0.7677,-0.7675,-0.7675,-0.7639,-0.7673,-0.7673,-0.7672,-0.7672,-0.7672,-0.757,-0.758,-0.7587,-0.7599,-0.7605,-0.7612,-0.7622,-0.7625,-0.7636,-0.7648,-0.7648,-0.7661,-0.7669,-0.7684,-0.769,-0.77,-0.7696,-0.7701,-0.7702,-0.7704,-0.7704,-0.7673,-0.7702,-0.7702,-0.7702,-0.7702,-0.7702,0,-0.7603,-0.7607,-0.7617,-0.7628,-0.7637,-0.7632,-0.7641,-0.7649,-0.766,-0.7668,-0.7677,-0.7691,-0.7702,-0.7707,-0.7719,-0.7726,-0.7725,-0.7729,-0.7728,-0.7729,-0.7707,-0.7703,-0.7729,-0.7729,-0.7729,-0.7729,-0.7729,-0.7729,-0.7621,-0.7637,-0.7638,-0.7656,-0.766,-0.7673,-0.7678,-0.7684,-0.769,-0.7705,-0.7714,-0.7717,-0.7723,-0.7734,-0.7744,-0.7745,-0.7749,-0.7754,-0.7754,-0.7734,-0.7731,-0.7728,-0.7724,-0.7755,-0.7755,-0.7775,-0.7775,-0.7775]},{"header":{"parameterUnit":"m.s-1","parameterCategory":1,"la1":30.2991,"la2":30.254,"lo1":-89.0895,"lo2":-89.0444,"dy":0.0017,"dx":0.0017,"nx":28,"ny":28,"refTime":"2026-01-29T09:00:00:Z","depth":0,"parameterNumber":3,"parameterNumberName":"V-component_of_WINDS"},"data":[0,0,0,0,0,0,0,0,0,0,0,0,0,0,0,0,0,0,0,0,0,0,0,0,0,0,0,0,0,0,0,0,0,0,0,0,0,0,0,0,0,0,0,0,0,0,0,0,0,0,0,0,0,0,0,0,0,0,-2.7257,-2.7258,0,-2.7345,-2.7346,-2.7347,-2.7327,-2.7326,-2.7324,-2.7323,-2.7411,-2.7414,-2.7418,0,0,0,0,0,0,0,0,0,0,0,0,0,-2.707,-2.7074,-2.7257,-2.7258,-2.7259,-2.7345,-2.7346,-2.7347,-2.7328,-2.7326,-2.7324,-2.7322,-2.7409,-2.7414,-2.7419,0,0,0,0,0,0,0,0,0,0,0,0,0,-2.7154,-2.7075,-2.7257,-2.726,-2.7261,-2.7345,-2.7346,-2.7348,-2.7328,-2.7326,-2.7323,-2.7321,-2.7408,-2.7414,-2.7419,-2.7505,0,0,-2.7437,-2.744,0,0,0,0,0,0,0,0,-2.7149,-2.7161,-2.7258,-2.726,-2.7261,-2.7323,-2.7313,-2.74,-2.7329,-2.7303,-2.7323,-2.732,-2.7383,-2.7391,-2.7413,-2.7509,-2.7513,-2.7438,-2.7441,-2.7444,-2.7445,0,0,0,0,0,0,0,-2.7143,-2.7157,-2.7292,-2.726,-2.7262,-2.7256,-2.7265,-2.7329,-2.7356,-2.7305,-2.7304,-2.7314,-2.7384,-2.7407,-2.7415,-2.7514,-2.7437,-2.7443,-2.7446,-2.7449,-2.7684,-2.7686,0,0,0,0,0,0,-2.7137,-2.7152,-2.7289,-2.7295,-2.7198,-2.7262,-2.7272,-2.7306,-2.7355,-2.736,-2.7316,-2.7313,-2.7399,-2.7408,-2.7418,-2.7521,-2.7444,-2.7449,-2.7452,-2.7681,-2.7684,-2.7687,0,0,0,0,0,0,-2.7133,-2.7149,-2.7286,-2.7223,-2.724,-2.7267,-2.7305,-2.7309,-2.7332,-2.7364,-2.7368,-2.7336,-2.7397,-2.741,-2.7483,-2.7523,-2.7452,-2.7457,-2.7678,-2.7682,-2.7686,-2.7727,0,0,0,0,0,0,-2.7127,-2.7148,-2.7181,-2.7224,-2.7244,-2.735,-2.7308,-2.7312,-2.7343,-2.7339,-2.7383,-2.7388,-2.7396,-2.7475,-2.7489,-2.753,-2.7462,-2.7674,-2.768,-2.7685,-2.7722,-2.7732,-2.7741,0,0,0,0,0,-2.7121,-2.7189,-2.7183,-2.72,-2.7286,-2.7353,-2.7364,-2.7372,-2.7346,-2.7379,-2.7399,-2.7387,-2.7517,-2.7482,-2.7498,-2.7542,-2.7672,-2.7678,-2.7684,-2.7718,-2.773,-2.7741,0,0,0,0,0,0,-2.715,-2.7195,-2.7188,-2.7273,-2.7309,-2.7349,-2.7392,-2.7385,-2.7429,-2.7424,-2.7431,-2.7441,-2.7516,-2.7537,-2.7497,-2.7627,-2.759,-2.76,-2.7611,-2.7623,-2.7632,-2.7625,-2.7466,0,0,0,0,0,-2.7166,-2.7217,-2.7254,-2.7324,-2.7343,-2.7364,-2.7394,-2.7397,-2.7435,-2.745,-2.7475,-2.7512,-2.7561,-2.7593,-2.764,-2.7725,-2.7734,-2.7763,-2.7772,-2.778,-2.7788,-2.7833,-2.7846,-2.7708,-2.7708,-2.7708,0,0,-2.72,-2.7231,-2.7263,-2.7331,-2.736,-2.7412,-2.7377,-2.7434,-2.7472,-2.7458,-2.7529,-2.7549,-2.759,-2.767,-2.7707,-2.7689,-2.7828,-2.7787,-2.7793,-2.7797,-2.7841,-2.7854,-2.7866,-2.7712,-2.7711,-2.771,0,0,-2.7288,-2.7317,-2.7379,-2.7409,-2.7452,-2.7466,-2.7481,-2.7522,-2.7535,-2.7607,-2.7597,-2.7642,-2.7727,-2.7756,-2.7782,-2.7881,-2.7871,-2.7896,-2.7944,-2.7989,-2.8,-2.8009,-2.8044,-2.8056,-2.7904,-2.7905,-2.7905,0,-2.7325,-2.7404,-2.7412,-2.7469,-2.7499,-2.7489,-2.7551,-2.7579,-2.7636,-2.7656,-2.7636,-2.7742,-2.7769,-2.7855,-2.7879,-2.7901,-2.7917,-2.7891,-2.7998,-2.8007,-2.8016,-2.805,-2.8063,-2.7907,-2.7907,-2.7907,-2.7906,0,-2.7446,-2.7501,-2.7545,-2.76,-2.7635,-2.7695,-2.7711,-2.7746,-2.7746,-2.7761,-2.7834,-2.7866,-2.7919,-2.794,-2.794,-2.8026,-2.8013,-2.7996,-2.7959,-2.8032,-2.8063,-2.8076,-2.7911,-2.791,-2.7909,-2.7909,0,0,-2.7555,-2.7614,-2.763,-2.7655,-2.7702,-2.7744,-2.7803,-2.7855,-2.7884,-2.7923,-2.7972,-2.8044,-2.8027,-2.8057,-2.806,-2.81,-2.8175,-2.8077,-2.8078,-2.8093,-2.827,-2.8283,-2.8298,-2.8169,-2.8171,-2.8173,-2.8267,0,-2.7647,-2.7751,-2.776,-2.7853,-2.7903,-2.7894,-2.7945,-2.7979,-2.7995,-2.8039,-2.8057,-2.8107,-2.8082,-2.81,-2.8138,-2.8158,-2.8211,-2.8151,-2.8213,-2.8215,-2.8203,-2.8314,-2.8328,-2.8415,-2.8279,-2.8281,-2.8283,0,-2.7769,-2.7812,-2.791,-2.795,-2.7971,-2.8017,-2.8065,-2.8108,-2.8146,-2.8155,-2.8188,-2.8186,-2.8245,-2.8207,-2.8289,-2.8248,-2.8274,-2.8287,-2.8291,-2.8296,-2.8253,-2.8322,-2.8443,-2.8456,-2.8302,-2.83,-2.8299,0,-2.7837,-2.792,-2.7989,-2.8011,-2.8059,-2.8091,-2.8113,-2.8149,-2.8179,-2.8221,-2.8241,-2.8289,-2.8315,-2.8352,-2.8363,-2.8334,-2.8444,-2.8407,-2.8452,-2.8452,-2.8475,-2.8474,-2.8601,-2.8493,-2.8493,-2.8493,-2.8492,0,-2.7939,-2.7999,-2.8021,-2.8063,-2.813,-2.814,-2.8205,-2.8225,-2.8257,-2.8303,-2.8298,-2.834,-2.8353,-2.8397,-2.8406,-2.8472,-2.8484,-2.8492,-2.8494,-2.8492,-2.8491,-2.8509,-2.8503,-2.8496,-2.8495,-2.8495,-2.8494,0,-2.8027,-2.8044,-2.8119,-2.8158,-2.817,-2.8217,-2.8251,-2.8291,-2.8306,-2.8364,-2.8378,-2.8402,-2.8454,-2.8469,-2.8532,-2.8537,-2.8614,-2.8611,-2.8602,-2.8602,-2.8646,-2.8641,-2.8789,-2.8808,-2.8688,-2.8689,-2.869,0,-2.809,-2.8136,-2.8181,-2.8211,-2.8234,-2.8284,-2.8315,-2.8325,-2.8358,-2.8405,-2.8439,-2.8491,-2.8533,-2.8617,-2.8639,-2.8687,-2.8684,-2.8733,-2.8691,-2.8688,-2.8684,-2.8681,-2.8685,-2.874,-2.8741,-2.8742,-2.8743,0,-2.8201,-2.8207,-2.8252,-2.8301,-2.8338,-2.8377,-2.8414,-2.8439,-2.8454,-2.8491,-2.8545,-2.8578,-2.8642,-2.8693,-2.8741,-2.8762,-2.8755,-2.8756,-2.8769,-2.8768,-2.8761,-2.8764,-2.8622,-2.8753,-2.8752,-2.8751,-2.875,-2.875,-2.8278,-2.8318,-2.8356,-2.8406,-2.8435,-2.847,-2.851,-2.853,-2.8575,-2.8629,-2.8632,-2.869,-2.8726,-2.879,-2.8814,-2.8859,-2.8845,-2.8864,-2.8868,-2.8873,-2.8876,-2.8754,-2.8868,-2.8868,-2.8868,-2.8867,-2.8867,0,-2.8388,-2.8411,-2.8458,-2.851,-2.8549,-2.854,-2.858,-2.8614,-2.8665,-2.87,-2.8741,-2.8802,-2.8852,-2.8878,-2.8927,-2.8958,-2.8956,-2.8971,-2.8968,-2.8973,-2.8887,-2.887,-2.8971,-2.8971,-2.8971,-2.8971,-2.8971,-2.8971,-2.8449,-2.8517,-2.8527,-2.8609,-2.8632,-2.8689,-2.8713,-2.8744,-2.8772,-2.8841,-2.8882,-2.8899,-2.893,-2.8981,-2.9026,-2.9032,-2.905,-2.9067,-2.9071,-2.899,-2.8979,-2.8969,-2.8954,-2.9071,-2.9071,-2.9154,-2.9154,-2.9155]}]]